owner,sensor,date,latitude,longitude,vertical_datum,sea_water_practical_salinity,qcFlag 
TABS,ioos:station:wmo:42050:1,2019-01-01T00:00:00Z,28.8425,-94.2433,2.0,34.5003,11111222 
TABS,ioos:station:wmo:42050:1,2019-01-01T00:30:00Z,28.8425,-94.2433,2.0,34.4621,11111222 
TABS,ioos:station:wmo:42050:1,2019-01-01T01:00:00Z,28.8425,-94.2433,2.0,34.4697,11111222 
TABS,ioos:station:wmo:42050:1,2019-01-01T01:30:00Z,28.8425,-94.2433,2.0,34.4768,11111222 
TABS,ioos:station:wmo:42050:1,2019-01-01T02:00:00Z,28.8425,-94.2433,2.0,34.5234,11111222 
TABS,ioos:station:wmo:42050:1,2019-01-01T02:30:00Z,28.8425,-94.2433,2.0,34.5121,11111222 
TABS,ioos:station:wmo:42050:1,2019-01-01T03:00:00Z,28.8425,-94.2433,2.0,34.564,11111222 
TABS,ioos:station:wmo:42050:1,2019-01-01T03:30:00Z,28.8425,-94.2433,2.0,34.6222,11111222 
TABS,ioos:station:wmo:42050:1,2019-01-01T04:00:00Z,28.8425,-94.2433,2.0,34.6579,11111222 
TABS,ioos:station:wmo:42050:1,2019-01-01T04:30:00Z,28.8425,-94.2433,2.0,34.6855,11111222 
TABS,ioos:station:wmo:42050:1,2019-01-01T05:00:00Z,28.8425,-94.2433,2.0,34.7187,11111222 
TABS,ioos:station:wmo:42050:1,2019-01-01T05:30:00Z,28.8425,-94.2433,2.0,34.7335,11111222 
TABS,ioos:station:wmo:42050:1,2019-01-01T06:00:00Z,28.8425,-94.2433,2.0,34.7278,11111222 
TABS,ioos:station:wmo:42050:1,2019-01-01T06:30:00Z,28.8425,-94.2433,2.0,34.7364,11111222 
TABS,ioos:station:wmo:42050:1,2019-01-01T07:00:00Z,28.8425,-94.2433,2.0,34.7274,11111222 
TABS,ioos:station:wmo:42050:1,2019-01-01T07:30:00Z,28.8425,-94.2433,2.0,34.6925,11111222 
TABS,ioos:station:wmo:42050:1,2019-01-01T08:00:00Z,28.8425,-94.2433,2.0,34.6444,11111222 
TABS,ioos:station:wmo:42050:1,2019-01-01T08:30:00Z,28.8425,-94.2433,2.0,34.5801,11111222 
TABS,ioos:station:wmo:42050:1,2019-01-01T09:00:00Z,28.8425,-94.2433,2.0,34.6238,11111222 
TABS,ioos:station:wmo:42050:1,2019-01-01T09:30:00Z,28.8425,-94.2433,2.0,34.5902,11111222 
TABS,ioos:station:wmo:42050:1,2019-01-01T10:00:00Z,28.8425,-94.2433,2.0,34.5989,11111222 
TABS,ioos:station:wmo:42050:1,2019-01-01T10:30:00Z,28.8425,-94.2433,2.0,34.6301,11111222 
TABS,ioos:station:wmo:42050:1,2019-01-01T11:00:00Z,28.8425,-94.2433,2.0,34.6501,11111222 
TABS,ioos:station:wmo:42050:1,2019-01-01T11:30:00Z,28.8425,-94.2433,2.0,34.621,11111222 
TABS,ioos:station:wmo:42050:1,2019-01-01T12:00:00Z,28.8425,-94.2433,2.0,34.5833,11111222 
TABS,ioos:station:wmo:42050:1,2019-01-01T12:30:00Z,28.8425,-94.2433,2.0,34.4823,11111222 
TABS,ioos:station:wmo:42050:1,2019-01-01T13:00:00Z,28.8425,-94.2433,2.0,34.3273,11111222 
TABS,ioos:station:wmo:42050:1,2019-01-01T13:30:00Z,28.8425,-94.2433,2.0,34.3897,11111222 
TABS,ioos:station:wmo:42050:1,2019-01-01T14:00:00Z,28.8425,-94.2433,2.0,34.4321,11111222 
TABS,ioos:station:wmo:42050:1,2019-01-01T14:30:00Z,28.8425,-94.2433,2.0,34.2553,11111222 
TABS,ioos:station:wmo:42050:1,2019-01-01T15:00:00Z,28.8425,-94.2433,2.0,34.5126,11111222 
TABS,ioos:station:wmo:42050:1,2019-01-01T15:30:00Z,28.8425,-94.2433,2.0,34.5345,11111222 
TABS,ioos:station:wmo:42050:1,2019-01-01T16:00:00Z,28.8425,-94.2433,2.0,34.6389,11111222 
TABS,ioos:station:wmo:42050:1,2019-01-01T16:30:00Z,28.8425,-94.2433,2.0,34.4531,11111222 
TABS,ioos:station:wmo:42050:1,2019-01-01T17:00:00Z,28.8425,-94.2433,2.0,34.7104,11111222 
TABS,ioos:station:wmo:42050:1,2019-01-01T17:30:00Z,28.8425,-94.2433,2.0,34.794,11111222 
TABS,ioos:station:wmo:42050:1,2019-01-01T18:00:00Z,28.8425,-94.2433,2.0,34.7837,11111222 
TABS,ioos:station:wmo:42050:1,2019-01-01T18:30:00Z,28.8425,-94.2433,2.0,34.8159,11111222 
TABS,ioos:station:wmo:42050:1,2019-01-01T19:00:00Z,28.8425,-94.2433,2.0,34.8638,11111222 
TABS,ioos:station:wmo:42050:1,2019-01-01T19:30:00Z,28.8425,-94.2433,2.0,34.9372,11111222 
TABS,ioos:station:wmo:42050:1,2019-01-01T20:00:00Z,28.8425,-94.2433,2.0,34.9162,11111222 
TABS,ioos:station:wmo:42050:1,2019-01-01T20:30:00Z,28.8425,-94.2433,2.0,34.9879,11111222 
TABS,ioos:station:wmo:42050:1,2019-01-01T21:00:00Z,28.8425,-94.2433,2.0,34.9699,11111222 
TABS,ioos:station:wmo:42050:1,2019-01-01T21:30:00Z,28.8425,-94.2433,2.0,34.9157,11111222 
TABS,ioos:station:wmo:42050:1,2019-01-01T22:00:00Z,28.8425,-94.2433,2.0,34.9242,11111222 
TABS,ioos:station:wmo:42050:1,2019-01-01T22:30:00Z,28.8425,-94.2433,2.0,34.9049,11111222 
TABS,ioos:station:wmo:42050:1,2019-01-01T23:00:00Z,28.8425,-94.2433,2.0,34.9438,11111222 
TABS,ioos:station:wmo:42050:1,2019-01-01T23:30:00Z,28.8425,-94.2433,2.0,34.899,11111222 
TABS,ioos:station:wmo:42050:1,2019-01-02T00:00:00Z,28.8425,-94.2433,2.0,34.8809,11111222 
TABS,ioos:station:wmo:42050:1,2019-01-02T00:30:00Z,28.8425,-94.2433,2.0,34.8098,11111222 
TABS,ioos:station:wmo:42050:1,2019-01-02T01:00:00Z,28.8425,-94.2433,2.0,34.8905,11111222 
TABS,ioos:station:wmo:42050:1,2019-01-02T01:30:00Z,28.8425,-94.2433,2.0,34.9161,11111222 
TABS,ioos:station:wmo:42050:1,2019-01-02T02:00:00Z,28.8425,-94.2433,2.0,34.8842,11111222 
TABS,ioos:station:wmo:42050:1,2019-01-02T02:30:00Z,28.8425,-94.2433,2.0,34.8816,11111222 
TABS,ioos:station:wmo:42050:1,2019-01-02T03:00:00Z,28.8425,-94.2433,2.0,34.8926,11111222 
TABS,ioos:station:wmo:42050:1,2019-01-02T03:30:00Z,28.8425,-94.2433,2.0,34.8925,11111222 
TABS,ioos:station:wmo:42050:1,2019-01-02T04:00:00Z,28.8425,-94.2433,2.0,34.9103,11111222 
TABS,ioos:station:wmo:42050:1,2019-01-02T04:30:00Z,28.8425,-94.2433,2.0,34.9169,11111222 
TABS,ioos:station:wmo:42050:1,2019-01-02T05:00:00Z,28.8425,-94.2433,2.0,34.9327,11111222 
TABS,ioos:station:wmo:42050:1,2019-01-02T05:30:00Z,28.8425,-94.2433,2.0,34.9518,11111222 
TABS,ioos:station:wmo:42050:1,2019-01-02T06:00:00Z,28.8425,-94.2433,2.0,34.9516,11111222 
TABS,ioos:station:wmo:42050:1,2019-01-02T06:30:00Z,28.8425,-94.2433,2.0,34.9365,11111222 
TABS,ioos:station:wmo:42050:1,2019-01-02T07:00:00Z,28.8425,-94.2433,2.0,34.9042,11111222 
TABS,ioos:station:wmo:42050:1,2019-01-02T07:30:00Z,28.8425,-94.2433,2.0,34.8613,11111222 
TABS,ioos:station:wmo:42050:1,2019-01-02T08:00:00Z,28.8425,-94.2433,2.0,34.8452,11111222 
TABS,ioos:station:wmo:42050:1,2019-01-02T08:30:00Z,28.8425,-94.2433,2.0,34.8316,11111222 
TABS,ioos:station:wmo:42050:1,2019-01-02T09:00:00Z,28.8425,-94.2433,2.0,34.8136,11111222 
TABS,ioos:station:wmo:42050:1,2019-01-02T09:30:00Z,28.8425,-94.2433,2.0,34.6465,11111222 
TABS,ioos:station:wmo:42050:1,2019-01-02T10:00:00Z,28.8425,-94.2433,2.0,34.6723,11111222 
TABS,ioos:station:wmo:42050:1,2019-01-02T10:30:00Z,28.8425,-94.2433,2.0,34.6383,11111222 
TABS,ioos:station:wmo:42050:1,2019-01-02T11:00:00Z,28.8425,-94.2433,2.0,34.5826,11111222 
TABS,ioos:station:wmo:42050:1,2019-01-02T11:30:00Z,28.8425,-94.2433,2.0,34.5913,11111222 
TABS,ioos:station:wmo:42050:1,2019-01-02T12:00:00Z,28.8425,-94.2433,2.0,34.6506,11111222 
TABS,ioos:station:wmo:42050:1,2019-01-02T12:30:00Z,28.8425,-94.2433,2.0,34.6693,11111222 
TABS,ioos:station:wmo:42050:1,2019-01-02T13:00:00Z,28.8425,-94.2433,2.0,34.7092,11111222 
TABS,ioos:station:wmo:42050:1,2019-01-02T13:30:00Z,28.8425,-94.2433,2.0,34.7394,11111222 
TABS,ioos:station:wmo:42050:1,2019-01-02T14:00:00Z,28.8425,-94.2433,2.0,34.6376,11111222 
TABS,ioos:station:wmo:42050:1,2019-01-02T14:30:00Z,28.8425,-94.2433,2.0,34.7177,11111222 
TABS,ioos:station:wmo:42050:1,2019-01-02T15:00:00Z,28.8425,-94.2433,2.0,34.8094,11111222 
TABS,ioos:station:wmo:42050:1,2019-01-02T15:30:00Z,28.8425,-94.2433,2.0,34.8454,11111222 
TABS,ioos:station:wmo:42050:1,2019-01-02T16:00:00Z,28.8425,-94.2433,2.0,34.8903,11111222 
TABS,ioos:station:wmo:42050:1,2019-01-02T16:30:00Z,28.8425,-94.2433,2.0,34.9186,11111222 
TABS,ioos:station:wmo:42050:1,2019-01-02T17:00:00Z,28.8425,-94.2433,2.0,34.9346,11111222 
TABS,ioos:station:wmo:42050:1,2019-01-02T17:30:00Z,28.8425,-94.2433,2.0,34.9533,11111222 
TABS,ioos:station:wmo:42050:1,2019-01-02T18:00:00Z,28.8425,-94.2433,2.0,34.9813,11111222 
TABS,ioos:station:wmo:42050:1,2019-01-02T18:30:00Z,28.8425,-94.2433,2.0,34.9884,11111222 
TABS,ioos:station:wmo:42050:1,2019-01-02T19:00:00Z,28.8425,-94.2433,2.0,35.0298,11111222 
TABS,ioos:station:wmo:42050:1,2019-01-02T19:30:00Z,28.8425,-94.2433,2.0,35.0306,11111222 
TABS,ioos:station:wmo:42050:1,2019-01-02T20:00:00Z,28.8425,-94.2433,2.0,35.0466,11111222 
TABS,ioos:station:wmo:42050:1,2019-01-02T20:30:00Z,28.8425,-94.2433,2.0,35.0603,11111222 
TABS,ioos:station:wmo:42050:1,2019-01-02T21:00:00Z,28.8425,-94.2433,2.0,35.1365,11111222 
TABS,ioos:station:wmo:42050:1,2019-01-02T21:30:00Z,28.8425,-94.2433,2.0,35.0946,11111222 
TABS,ioos:station:wmo:42050:1,2019-01-02T22:00:00Z,28.8425,-94.2433,2.0,35.0857,11111222 
TABS,ioos:station:wmo:42050:1,2019-01-02T22:30:00Z,28.8425,-94.2433,2.0,35.077,11111222 
TABS,ioos:station:wmo:42050:1,2019-01-02T23:00:00Z,28.8425,-94.2433,2.0,35.0582,11111222 
TABS,ioos:station:wmo:42050:1,2019-01-02T23:30:00Z,28.8425,-94.2433,2.0,34.9997,11111222 
TABS,ioos:station:wmo:42050:1,2019-01-03T00:00:00Z,28.8425,-94.2433,2.0,35.0199,11111222 
TABS,ioos:station:wmo:42050:1,2019-01-03T00:30:00Z,28.8425,-94.2433,2.0,35.0371,11111222 
TABS,ioos:station:wmo:42050:1,2019-01-03T01:00:00Z,28.8425,-94.2433,2.0,34.943,11111222 
TABS,ioos:station:wmo:42050:1,2019-01-03T01:30:00Z,28.8425,-94.2433,2.0,34.9468,11111222 
TABS,ioos:station:wmo:42050:1,2019-01-03T02:00:00Z,28.8425,-94.2433,2.0,34.9641,11111222 
TABS,ioos:station:wmo:42050:1,2019-01-03T02:30:00Z,28.8425,-94.2433,2.0,34.9801,11111222 
TABS,ioos:station:wmo:42050:1,2019-01-03T03:00:00Z,28.8425,-94.2433,2.0,35.0048,11111222 
TABS,ioos:station:wmo:42050:1,2019-01-03T03:30:00Z,28.8425,-94.2433,2.0,34.9754,11111222 
TABS,ioos:station:wmo:42050:1,2019-01-03T04:00:00Z,28.8425,-94.2433,2.0,34.9482,11111222 
TABS,ioos:station:wmo:42050:1,2019-01-03T04:30:00Z,28.8425,-94.2433,2.0,34.9296,11111222 
TABS,ioos:station:wmo:42050:1,2019-01-03T05:00:00Z,28.8425,-94.2433,2.0,34.9261,11111222 
TABS,ioos:station:wmo:42050:1,2019-01-03T05:30:00Z,28.8425,-94.2433,2.0,34.8851,11111222 
TABS,ioos:station:wmo:42050:1,2019-01-03T06:00:00Z,28.8425,-94.2433,2.0,34.884,11111222 
TABS,ioos:station:wmo:42050:1,2019-01-03T06:30:00Z,28.8425,-94.2433,2.0,34.8465,11111222 
TABS,ioos:station:wmo:42050:1,2019-01-03T07:00:00Z,28.8425,-94.2433,2.0,34.8278,11111222 
TABS,ioos:station:wmo:42050:1,2019-01-03T07:30:00Z,28.8425,-94.2433,2.0,34.806,11111222 
TABS,ioos:station:wmo:42050:1,2019-01-03T08:00:00Z,28.8425,-94.2433,2.0,34.7635,11111222 
TABS,ioos:station:wmo:42050:1,2019-01-03T08:30:00Z,28.8425,-94.2433,2.0,34.7309,11111222 
TABS,ioos:station:wmo:42050:1,2019-01-03T09:00:00Z,28.8425,-94.2433,2.0,34.7029,11111222 
TABS,ioos:station:wmo:42050:1,2019-01-03T09:30:00Z,28.8425,-94.2433,2.0,34.6717,11111222 
TABS,ioos:station:wmo:42050:1,2019-01-03T10:00:00Z,28.8425,-94.2433,2.0,34.6239,11111222 
TABS,ioos:station:wmo:42050:1,2019-01-03T10:30:00Z,28.8425,-94.2433,2.0,34.585,11111222 
TABS,ioos:station:wmo:42050:1,2019-01-03T11:00:00Z,28.8425,-94.2433,2.0,34.5182,11111222 
TABS,ioos:station:wmo:42050:1,2019-01-03T11:30:00Z,28.8425,-94.2433,2.0,34.4955,11111222 
TABS,ioos:station:wmo:42050:1,2019-01-03T12:00:00Z,28.8425,-94.2433,2.0,34.4701,11111222 
TABS,ioos:station:wmo:42050:1,2019-01-03T12:30:00Z,28.8425,-94.2433,2.0,34.4676,11111222 
TABS,ioos:station:wmo:42050:1,2019-01-03T13:00:00Z,28.8425,-94.2433,2.0,34.4612,11111222 
TABS,ioos:station:wmo:42050:1,2019-01-03T13:30:00Z,28.8425,-94.2433,2.0,34.4118,11111222 
TABS,ioos:station:wmo:42050:1,2019-01-03T14:00:00Z,28.8425,-94.2433,2.0,34.4574,11111222 
TABS,ioos:station:wmo:42050:1,2019-01-03T14:30:00Z,28.8425,-94.2433,2.0,34.4578,11111222 
TABS,ioos:station:wmo:42050:1,2019-01-03T15:00:00Z,28.8425,-94.2433,2.0,34.4025,11111222 
TABS,ioos:station:wmo:42050:1,2019-01-03T15:30:00Z,28.8425,-94.2433,2.0,34.4358,11111222 
TABS,ioos:station:wmo:42050:1,2019-01-03T16:00:00Z,28.8425,-94.2433,2.0,34.4743,11111222 
TABS,ioos:station:wmo:42050:1,2019-01-03T16:30:00Z,28.8425,-94.2433,2.0,34.4714,11111222 
TABS,ioos:station:wmo:42050:1,2019-01-03T17:00:00Z,28.8425,-94.2433,2.0,34.4937,11111222 
TABS,ioos:station:wmo:42050:1,2019-01-03T17:30:00Z,28.8425,-94.2433,2.0,34.5102,11111222 
TABS,ioos:station:wmo:42050:1,2019-01-03T18:00:00Z,28.8425,-94.2433,2.0,34.5316,11111222 
TABS,ioos:station:wmo:42050:1,2019-01-03T18:30:00Z,28.8425,-94.2433,2.0,34.5676,11111222 
TABS,ioos:station:wmo:42050:1,2019-01-03T19:00:00Z,28.8425,-94.2433,2.0,34.6243,11111222 
TABS,ioos:station:wmo:42050:1,2019-01-03T19:30:00Z,28.8425,-94.2433,2.0,34.6456,11111222 
TABS,ioos:station:wmo:42050:1,2019-01-03T20:00:00Z,28.8425,-94.2433,2.0,34.6634,11111222 
TABS,ioos:station:wmo:42050:1,2019-01-03T20:30:00Z,28.8425,-94.2433,2.0,34.6856,11111222 
TABS,ioos:station:wmo:42050:1,2019-01-03T21:00:00Z,28.8425,-94.2433,2.0,34.6829,11111222 
TABS,ioos:station:wmo:42050:1,2019-01-03T21:30:00Z,28.8425,-94.2433,2.0,34.6848,11111222 
TABS,ioos:station:wmo:42050:1,2019-01-03T22:00:00Z,28.8425,-94.2433,2.0,34.69,11111222 
TABS,ioos:station:wmo:42050:1,2019-01-03T22:30:00Z,28.8425,-94.2433,2.0,34.6916,11111222 
TABS,ioos:station:wmo:42050:1,2019-01-03T23:00:00Z,28.8425,-94.2433,2.0,34.6902,11111222 
TABS,ioos:station:wmo:42050:1,2019-01-03T23:30:00Z,28.8425,-94.2433,2.0,34.6904,11111222 
TABS,ioos:station:wmo:42050:1,2019-01-04T00:00:00Z,28.8425,-94.2433,2.0,34.6931,11111222 
TABS,ioos:station:wmo:42050:1,2019-01-04T00:30:00Z,28.8425,-94.2433,2.0,34.6913,11111222 
TABS,ioos:station:wmo:42050:1,2019-01-04T01:00:00Z,28.8425,-94.2433,2.0,34.6912,11111222 
TABS,ioos:station:wmo:42050:1,2019-01-04T01:30:00Z,28.8425,-94.2433,2.0,34.6963,11111222 
TABS,ioos:station:wmo:42050:1,2019-01-04T02:00:00Z,28.8425,-94.2433,2.0,34.6998,11111222 
TABS,ioos:station:wmo:42050:1,2019-01-04T02:30:00Z,28.8425,-94.2433,2.0,34.7038,11111222 
TABS,ioos:station:wmo:42050:1,2019-01-04T03:00:00Z,28.8425,-94.2433,2.0,34.7014,11111222 
TABS,ioos:station:wmo:42050:1,2019-01-04T03:30:00Z,28.8425,-94.2433,2.0,34.7108,11111222 
TABS,ioos:station:wmo:42050:1,2019-01-04T04:00:00Z,28.8425,-94.2433,2.0,34.7124,11111222 
TABS,ioos:station:wmo:42050:1,2019-01-04T04:30:00Z,28.8425,-94.2433,2.0,34.7147,11111222 
TABS,ioos:station:wmo:42050:1,2019-01-04T05:00:00Z,28.8425,-94.2433,2.0,34.716,11111222 
TABS,ioos:station:wmo:42050:1,2019-01-04T05:30:00Z,28.8425,-94.2433,2.0,34.7125,11111222 
TABS,ioos:station:wmo:42050:1,2019-01-04T06:00:00Z,28.8425,-94.2433,2.0,34.7102,11111222 
TABS,ioos:station:wmo:42050:1,2019-01-04T06:30:00Z,28.8425,-94.2433,2.0,34.7091,11111222 
TABS,ioos:station:wmo:42050:1,2019-01-04T07:00:00Z,28.8425,-94.2433,2.0,34.7083,11111222 
TABS,ioos:station:wmo:42050:1,2019-01-04T07:30:00Z,28.8425,-94.2433,2.0,34.7104,11111222 
TABS,ioos:station:wmo:42050:1,2019-01-04T08:00:00Z,28.8425,-94.2433,2.0,34.717,11111222 
TABS,ioos:station:wmo:42050:1,2019-01-04T08:30:00Z,28.8425,-94.2433,2.0,34.7193,11111222 
TABS,ioos:station:wmo:42050:1,2019-01-04T09:00:00Z,28.8425,-94.2433,2.0,34.7248,11111222 
TABS,ioos:station:wmo:42050:1,2019-01-04T09:30:00Z,28.8425,-94.2433,2.0,34.3896,11111222 
TABS,ioos:station:wmo:42050:1,2019-01-04T10:00:00Z,28.8425,-94.2433,2.0,34.4167,11111222 
TABS,ioos:station:wmo:42050:1,2019-01-04T10:30:00Z,28.8425,-94.2433,2.0,34.4429,11111222 
TABS,ioos:station:wmo:42050:1,2019-01-04T11:00:00Z,28.8425,-94.2433,2.0,34.3795,11111222 
TABS,ioos:station:wmo:42050:1,2019-01-04T11:30:00Z,28.8425,-94.2433,2.0,34.3791,11111222 
TABS,ioos:station:wmo:42050:1,2019-01-04T12:00:00Z,28.8425,-94.2433,2.0,34.3615,11111222 
TABS,ioos:station:wmo:42050:1,2019-01-04T12:30:00Z,28.8425,-94.2433,2.0,34.3508,11111222 
TABS,ioos:station:wmo:42050:1,2019-01-04T13:00:00Z,28.8425,-94.2433,2.0,34.3003,11111222 
TABS,ioos:station:wmo:42050:1,2019-01-04T13:30:00Z,28.8425,-94.2433,2.0,34.2864,11111222 
TABS,ioos:station:wmo:42050:1,2019-01-04T14:00:00Z,28.8425,-94.2433,2.0,34.2989,11111222 
TABS,ioos:station:wmo:42050:1,2019-01-04T14:30:00Z,28.8425,-94.2433,2.0,34.2877,11111222 
TABS,ioos:station:wmo:42050:1,2019-01-04T15:00:00Z,28.8425,-94.2433,2.0,34.2897,11111222 
TABS,ioos:station:wmo:42050:1,2019-01-04T15:30:00Z,28.8425,-94.2433,2.0,34.3138,11111222 
TABS,ioos:station:wmo:42050:1,2019-01-04T16:00:00Z,28.8425,-94.2433,2.0,34.2991,11111222 
TABS,ioos:station:wmo:42050:1,2019-01-04T16:30:00Z,28.8425,-94.2433,2.0,34.2987,11111222 
TABS,ioos:station:wmo:42050:1,2019-01-04T17:00:00Z,28.8425,-94.2433,2.0,34.3106,11111222 
TABS,ioos:station:wmo:42050:1,2019-01-04T17:30:00Z,28.8425,-94.2433,2.0,34.3138,11111222 
TABS,ioos:station:wmo:42050:1,2019-01-04T18:00:00Z,28.8425,-94.2433,2.0,34.3358,11111222 
TABS,ioos:station:wmo:42050:1,2019-01-04T18:30:00Z,28.8425,-94.2433,2.0,34.363,11111222 
TABS,ioos:station:wmo:42050:1,2019-01-04T19:00:00Z,28.8425,-94.2433,2.0,34.3785,11111222 
TABS,ioos:station:wmo:42050:1,2019-01-04T19:30:00Z,28.8425,-94.2433,2.0,34.4031,11111222 
TABS,ioos:station:wmo:42050:1,2019-01-04T20:00:00Z,28.8425,-94.2433,2.0,34.434,11111222 
TABS,ioos:station:wmo:42050:1,2019-01-04T20:30:00Z,28.8425,-94.2433,2.0,34.487,11111222 
TABS,ioos:station:wmo:42050:1,2019-01-04T21:00:00Z,28.8425,-94.2433,2.0,34.5635,11111222 
TABS,ioos:station:wmo:42050:1,2019-01-04T21:30:00Z,28.8425,-94.2433,2.0,34.6872,11111222 
TABS,ioos:station:wmo:42050:1,2019-01-04T22:00:00Z,28.8425,-94.2433,2.0,34.9173,11111222 
TABS,ioos:station:wmo:42050:1,2019-01-04T22:30:00Z,28.8425,-94.2433,2.0,34.9079,11111222 
TABS,ioos:station:wmo:42050:1,2019-01-04T23:00:00Z,28.8425,-94.2433,2.0,34.9048,11111222 
TABS,ioos:station:wmo:42050:1,2019-01-04T23:30:00Z,28.8425,-94.2433,2.0,34.9498,11111222 
TABS,ioos:station:wmo:42050:1,2019-01-05T00:00:00Z,28.8425,-94.2433,2.0,34.9566,11111222 
TABS,ioos:station:wmo:42050:1,2019-01-05T00:30:00Z,28.8425,-94.2433,2.0,34.9411,11111222 
TABS,ioos:station:wmo:42050:1,2019-01-05T01:00:00Z,28.8425,-94.2433,2.0,34.9304,11111222 
TABS,ioos:station:wmo:42050:1,2019-01-05T01:30:00Z,28.8425,-94.2433,2.0,34.6381,11111222 
TABS,ioos:station:wmo:42050:1,2019-01-05T02:00:00Z,28.8425,-94.2433,2.0,34.4966,11111222 
TABS,ioos:station:wmo:42050:1,2019-01-05T02:30:00Z,28.8425,-94.2433,2.0,34.397,11111222 
TABS,ioos:station:wmo:42050:1,2019-01-05T03:00:00Z,28.8425,-94.2433,2.0,34.3268,11111222 
TABS,ioos:station:wmo:42050:1,2019-01-05T03:30:00Z,28.8425,-94.2433,2.0,34.3339,11111222 
TABS,ioos:station:wmo:42050:1,2019-01-05T04:00:00Z,28.8425,-94.2433,2.0,34.3518,11111222 
TABS,ioos:station:wmo:42050:1,2019-01-05T04:30:00Z,28.8425,-94.2433,2.0,34.3627,11111222 
TABS,ioos:station:wmo:42050:1,2019-01-05T05:00:00Z,28.8425,-94.2433,2.0,34.3829,11111222 
TABS,ioos:station:wmo:42050:1,2019-01-05T05:30:00Z,28.8425,-94.2433,2.0,34.2472,11111222 
TABS,ioos:station:wmo:42050:1,2019-01-05T06:00:00Z,28.8425,-94.2433,2.0,34.2657,11111222 
TABS,ioos:station:wmo:42050:1,2019-01-05T06:30:00Z,28.8425,-94.2433,2.0,34.2657,11111222 
TABS,ioos:station:wmo:42050:1,2019-01-05T07:00:00Z,28.8425,-94.2433,2.0,34.0514,11111222 
TABS,ioos:station:wmo:42050:1,2019-01-05T07:30:00Z,28.8425,-94.2433,2.0,34.049,11111222 
TABS,ioos:station:wmo:42050:1,2019-01-05T08:00:00Z,28.8425,-94.2433,2.0,34.0646,11111222 
TABS,ioos:station:wmo:42050:1,2019-01-05T08:30:00Z,28.8425,-94.2433,2.0,34.0643,11111222 
TABS,ioos:station:wmo:42050:1,2019-01-05T09:00:00Z,28.8425,-94.2433,2.0,34.0763,11111222 
TABS,ioos:station:wmo:42050:1,2019-01-05T09:30:00Z,28.8425,-94.2433,2.0,34.0712,11111222 
TABS,ioos:station:wmo:42050:1,2019-01-05T10:00:00Z,28.8425,-94.2433,2.0,34.0601,11111222 
TABS,ioos:station:wmo:42050:1,2019-01-05T10:30:00Z,28.8425,-94.2433,2.0,34.0417,11111222 
TABS,ioos:station:wmo:42050:1,2019-01-05T11:00:00Z,28.8425,-94.2433,2.0,34.0126,11111222 
TABS,ioos:station:wmo:42050:1,2019-01-05T11:30:00Z,28.8425,-94.2433,2.0,33.9885,11111222 
TABS,ioos:station:wmo:42050:1,2019-01-05T12:00:00Z,28.8425,-94.2433,2.0,33.7187,11111222 
TABS,ioos:station:wmo:42050:1,2019-01-05T12:30:00Z,28.8425,-94.2433,2.0,33.5483,11111222 
TABS,ioos:station:wmo:42050:1,2019-01-05T13:00:00Z,28.8425,-94.2433,2.0,33.6076,11111222 
TABS,ioos:station:wmo:42050:1,2019-01-05T13:30:00Z,28.8425,-94.2433,2.0,33.5018,11111222 
TABS,ioos:station:wmo:42050:1,2019-01-05T14:00:00Z,28.8425,-94.2433,2.0,33.4679,11111222 
TABS,ioos:station:wmo:42050:1,2019-01-05T14:30:00Z,28.8425,-94.2433,2.0,33.4663,11111222 
TABS,ioos:station:wmo:42050:1,2019-01-05T15:00:00Z,28.8425,-94.2433,2.0,33.5459,11111222 
TABS,ioos:station:wmo:42050:1,2019-01-05T15:30:00Z,28.8425,-94.2433,2.0,33.5541,11111222 
TABS,ioos:station:wmo:42050:1,2019-01-05T16:00:00Z,28.8425,-94.2433,2.0,33.6392,11111222 
TABS,ioos:station:wmo:42050:1,2019-01-05T16:30:00Z,28.8425,-94.2433,2.0,33.7174,11111222 
TABS,ioos:station:wmo:42050:1,2019-01-05T17:00:00Z,28.8425,-94.2433,2.0,33.8838,11111222 
TABS,ioos:station:wmo:42050:1,2019-01-05T17:30:00Z,28.8425,-94.2433,2.0,33.926,11111222 
TABS,ioos:station:wmo:42050:1,2019-01-05T18:00:00Z,28.8425,-94.2433,2.0,34.0356,11111222 
TABS,ioos:station:wmo:42050:1,2019-01-05T18:30:00Z,28.8425,-94.2433,2.0,34.0628,11111222 
TABS,ioos:station:wmo:42050:1,2019-01-05T19:00:00Z,28.8425,-94.2433,2.0,34.2428,11111222 
TABS,ioos:station:wmo:42050:1,2019-01-05T19:30:00Z,28.8425,-94.2433,2.0,34.3068,11111222 
TABS,ioos:station:wmo:42050:1,2019-01-05T20:00:00Z,28.8425,-94.2433,2.0,34.418,11111222 
TABS,ioos:station:wmo:42050:1,2019-01-05T20:30:00Z,28.8425,-94.2433,2.0,34.4709,11111222 
TABS,ioos:station:wmo:42050:1,2019-01-05T21:00:00Z,28.8425,-94.2433,2.0,34.6095,11111222 
TABS,ioos:station:wmo:42050:1,2019-01-05T21:30:00Z,28.8425,-94.2433,2.0,34.6929,11111222 
TABS,ioos:station:wmo:42050:1,2019-01-05T22:00:00Z,28.8425,-94.2433,2.0,34.7275,11111222 
TABS,ioos:station:wmo:42050:1,2019-01-05T22:30:00Z,28.8425,-94.2433,2.0,34.7481,11111222 
TABS,ioos:station:wmo:42050:1,2019-01-05T23:00:00Z,28.8425,-94.2433,2.0,34.8467,11111222 
TABS,ioos:station:wmo:42050:1,2019-01-05T23:30:00Z,28.8425,-94.2433,2.0,34.9061,11111222 
TABS,ioos:station:wmo:42050:1,2019-01-06T00:00:00Z,28.8425,-94.2433,2.0,34.9472,11111222 
TABS,ioos:station:wmo:42050:1,2019-01-06T00:30:00Z,28.8425,-94.2433,2.0,34.9334,11111222 
TABS,ioos:station:wmo:42050:1,2019-01-06T01:00:00Z,28.8425,-94.2433,2.0,34.9199,11111222 
TABS,ioos:station:wmo:42050:1,2019-01-06T01:30:00Z,28.8425,-94.2433,2.0,34.882,11111222 
TABS,ioos:station:wmo:42050:1,2019-01-06T02:00:00Z,28.8425,-94.2433,2.0,34.8421,11111222 
TABS,ioos:station:wmo:42050:1,2019-01-06T02:30:00Z,28.8425,-94.2433,2.0,34.811,11111222 
TABS,ioos:station:wmo:42050:1,2019-01-06T03:00:00Z,28.8425,-94.2433,2.0,34.8112,11111222 
TABS,ioos:station:wmo:42050:1,2019-01-06T03:30:00Z,28.8425,-94.2433,2.0,34.7778,11111222 
TABS,ioos:station:wmo:42050:1,2019-01-06T04:00:00Z,28.8425,-94.2433,2.0,34.7656,11111222 
TABS,ioos:station:wmo:42050:1,2019-01-06T04:30:00Z,28.8425,-94.2433,2.0,34.7511,11111222 
TABS,ioos:station:wmo:42050:1,2019-01-06T05:00:00Z,28.8425,-94.2433,2.0,34.717,11111222 
TABS,ioos:station:wmo:42050:1,2019-01-06T05:30:00Z,28.8425,-94.2433,2.0,34.6905,11111222 
TABS,ioos:station:wmo:42050:1,2019-01-06T06:00:00Z,28.8425,-94.2433,2.0,34.6024,11111222 
TABS,ioos:station:wmo:42050:1,2019-01-06T06:30:00Z,28.8425,-94.2433,2.0,34.595,11111222 
TABS,ioos:station:wmo:42050:1,2019-01-06T07:00:00Z,28.8425,-94.2433,2.0,34.5749,11111222 
TABS,ioos:station:wmo:42050:1,2019-01-06T07:30:00Z,28.8425,-94.2433,2.0,34.4821,11111222 
TABS,ioos:station:wmo:42050:1,2019-01-06T08:00:00Z,28.8425,-94.2433,2.0,34.4464,11111222 
TABS,ioos:station:wmo:42050:1,2019-01-06T08:30:00Z,28.8425,-94.2433,2.0,34.3569,11111222 
TABS,ioos:station:wmo:42050:1,2019-01-06T09:00:00Z,28.8425,-94.2433,2.0,34.3085,11111222 
TABS,ioos:station:wmo:42050:1,2019-01-06T09:30:00Z,28.8425,-94.2433,2.0,34.1953,11111222 
TABS,ioos:station:wmo:42050:1,2019-01-06T10:00:00Z,28.8425,-94.2433,2.0,34.0847,11111222 
TABS,ioos:station:wmo:42050:1,2019-01-06T10:30:00Z,28.8425,-94.2433,2.0,33.7736,11111222 
TABS,ioos:station:wmo:42050:1,2019-01-06T11:00:00Z,28.8425,-94.2433,2.0,33.64,11111222 
TABS,ioos:station:wmo:42050:1,2019-01-06T11:30:00Z,28.8425,-94.2433,2.0,33.5875,11111222 
TABS,ioos:station:wmo:42050:1,2019-01-06T12:00:00Z,28.8425,-94.2433,2.0,33.5238,11111222 